This is the latest recevied weather packets stored in our database for station/object K0QJ. If no packets are shown the sender has not sent any weather packets the latest 10 day(s).
| Time | Temp. | Humidity | Pressure | Rain* | Wind** | Luminosity | Snow |
|---|---|---|---|---|---|---|---|
| 1778190986 | 20.56° C | 47% | 1009.9 hPa | 0 mm | - | 77 W/m² | - |
| 1778190684 | 20.56° C | 46% | 1009.9 hPa | 0 mm | - | 75 W/m² | - |
| 1778190381 | 20° C | 47% | 1009.8 hPa | 0 mm | - | 85 W/m² | - |
| 1778190077 | 20° C | 47% | 1010.2 hPa | 0 mm | - | 111 W/m² | - |
| 1778189773 | 20° C | 46% | 1010.2 hPa | 0 mm | - | 141 W/m² | - |
| 1778189471 | 20° C | 47% | 1010.2 hPa | 0 mm | - | 128 W/m² | - |
| 1778189167 | 20° C | 45% | 1010.3 hPa | 0 mm | - | 122 W/m² | - |
| 1778188863 | 20° C | 45% | 1010.6 hPa | 0 mm | - | 98 W/m² | - |
| 1778188560 | 20° C | 47% | 1010.5 hPa | 0 mm | - | 92 W/m² | - |
| 1778188256 | 20° C | 46% | 1010.4 hPa | 0 mm | - | 108 W/m² | - |
| 1778187954 | 20° C | 46% | 1010.4 hPa | 0 mm | - | 108 W/m² | - |
| 1778187650 | 20.56° C | 45% | 1010.5 hPa | 0 mm | - | 373 W/m² | - |
| 1778187347 | 20.56° C | 46% | 1010.8 hPa | 0 mm | - | 85 W/m² | - |
| 1778187043 | 20.56° C | 45% | 1011 hPa | 0 mm | - | 57 W/m² | - |
| 1778186739 | 20° C | 46% | 1010.9 hPa | 0 mm | - | 104 W/m² | - |
| 1778186437 | 20.56° C | 46% | 1011.2 hPa | 0 mm | - | 544 W/m² | - |
| 1778186135 | 20.56° C | 46% | 1011.3 hPa | 0 mm | - | 614 W/m² | - |
| 1778185832 | 20° C | 48% | 1011.3 hPa | 0 mm | - | 615 W/m² | - |
| 1778185528 | 20° C | 48% | 1011.3 hPa | 0 mm | - | 636 W/m² | - |
| 1778185224 | 20° C | 49% | 1011.3 hPa | 0 mm | - | 293 W/m² | - |
| 1778184920 | 20° C | 48% | 1011.5 hPa | 0 mm | - | 704 W/m² | - |
| 1778184616 | 20° C | 48% | 1011.7 hPa | 0 mm | - | 715 W/m² | - |
| 1778184312 | 20° C | 49% | 1011.9 hPa | 0 mm | - | 762 W/m² | - |
| 1778184008 | 19.44° C | 50% | 1011.8 hPa | 0 mm | - | 765 W/m² | - |
| 1778183705 | 20° C | 48% | 1011.8 hPa | 0 mm | - | 744 W/m² | - |
* Rain latest hour (hover to see other rain measurements)
** Current wind speed in m/s (hover to see current wind gust speed)